DECAYED

CZ-6A DEB, 60853 (Decayed)

Orbit data source: Space-Track

CZ-6A DEB, 60853 was space debris in LEO originally from a launch on Tue, 06 Aug 2024 UTC launched from the Taiyaun Space Center, China (TSC). Debris objects in space refer to the collection of defunct objects orbiting the Earth. Examples of debris include non-operational satellites, rocket bodies, and fragments generated from explosions, collisions, or faulty payload assembly.

Not visible in the next 10 days
Identifier
60853, 2024-140JG
Orbit
Decayed
Country
Flag of CNCN / PRC
Related business
Manufacturer
SAST
Mission
Decayed spacecraft
Bus & Motor
Unknown
Mass
Unknown
Launch date (UTC)
2024-08-06 (1 year ago)
Launch vehicle
Unknown
Launch site
Taiyaun Space Center, China (TSC)
Object type
Payload
Rocket body
Debris
Shape & HBR
Unknown shape, 1.1 m
Radar Cross Section
Small (<0.1 m²)

Expand to show TLE details & history
Last TLE update: 9 months ago

TLE from 9 months ago
0 CZ-6A DEB
1 60853U 24140JG  25028.94635982  .23285433 -12794-5  16924-1 0  9998
2 60853  89.1540 333.4191 0027058 132.4850 227.8740 16.14912685 25022
Epoch: 2025-01-28T22:42Z
TLE epoch observation values (Epoch: 2025-01-28T22:42:45.488Z)
Latitude
-0.00003°
Longitude
-135.71526°
Altitude
248.757 km
Speed
7.75 km/s
True Right ascension
22h 13m 40s
True Declination
0° 00' 00"
Sunlit
Object was in daylight at epoch
Visualization orbit readout
Latitude
Unknown
Longitude
Unknown
Altitude
Unknown
Speed
Unknown
Apparent Right ascension
Unknown
Apparent Declination
Unknown
Sunlit
N/A
Visualization observer readout
Local Sidereal Time
18:52:05
Azimuth
Unknown
Elevation
Unknown
Doppler factor
Unknown
Orbital elements
Apogee altitude
247.958 km
Perigee altitude
212.197 km
Semi-major axis
6,608.214 km
Eccentricity
0.00271
Inclination
89.154°
RAAN
333.4191°
Arg. of periapsis
132.485°
True anomaly
227.64456°
Mean anomaly
227.874°
Eccentric anomaly
227.75923°
Mean motion
4.04033 °/min
Orbital period
89.1 mins
BSTAR
0.016924
Loading maneuver chart data...
Computing Atmospheric mass density...
Loading historical data...
Loading historical data...
Loading historical data...
Loading historical data...
Loading historical data...
Loading historical data...
Loading historical data...

Documentation

Showing up to 5 results
|